Powrót do katalogu

ARIANE 42P+ DEB

LostHEO
NORAD 26741·DEBRIS·🇫🇷 France

Wystrzelony Oct 28, 1992 z Guiana Space Centre

Loading…

Następne Przeloty (najbliższe 24 godziny)

TLE

NieaktualneSource: Space-Track

Epoka: Mar 22, 2025, 09:27 UTC

1 26741U 92072J   25081.39406087 -.00002844  00000-0 -81433-1 0  9993
2 26741   7.2758 196.8511 6517750  17.7842   4.7919  2.92900115272169

Śledź ARIANE 42P+ DEB w czasie rzeczywistym z AllMySat

Download on the App Store